Wetterdaten: Sonntag, 05.11.2017
Datum Zeit Temp. I. Temp. A. Boden 5 cm Feuchte A. Sonne Luftdruck Regen Wind Sonnenschein
05.11.2017 00:00 22,5 C 3,9 C 6,5 C 88 % 19 % 1014 hPa 0,0 l/m 0,0 km/h (0 Bft) 0 min
05.11.2017 00:03 22,5 C 3,8 C 6,6 C 88 % 19 % 1014 hPa 0,0 l/m 0,0 km/h (0 Bft) 0 min
05.11.2017 00:06 22,4 C 3,8 C 6,5 C 88 % 19 % 1014 hPa 0,0 l/m 0,0 km/h (0 Bft) 0 min
05.11.2017 00:09 22,4 C 3,8 C 6,4 C 88 % 19 % 1014 hPa 0,0 l/m 0,0 km/h (0 Bft) 0 min
05.11.2017 00:12 22,4 C 3,7 C 6,5 C 88 % 19 % 1014 hPa 0,0 l/m 0,0 km/h (0 Bft) 0 min
05.11.2017 00:15 22,4 C 3,7 C 6,5 C 88 % 19 % 1014 hPa 0,0 l/m 0,0 km/h (0 Bft) 0 min
05.11.2017 00:18 22,4 C 3,7 C 6,6 C 88 % 19 % 1014 hPa 0,0 l/m 0,0 km/h (0 Bft) 0 min
05.11.2017 00:21 22,4 C 3,7 C 6,5 C 88 % 19 % 1014 hPa 0,0 l/m 0,0 km/h (0 Bft) 0 min
05.11.2017 00:24 22,4 C 3,7 C 6,4 C 88 % 19 % 1014 hPa 0,0 l/m 0,0 km/h (0 Bft) 0 min
05.11.2017 00:27 22,4 C 3,7 C 6,3 C 88 % 19 % 1014 hPa 0,0 l/m 0,0 km/h (0 Bft) 0 min
05.11.2017 00:30 22,4 C 3,7 C 6,3 C 88 % 19 % 1014 hPa 0,0 l/m 0,0 km/h (0 Bft) 0 min
05.11.2017 00:33 22,4 C 3,6 C 6,4 C 88 % 19 % 1014 hPa 0,0 l/m 0,0 km/h (0 Bft) 0 min
05.11.2017 00:36 22,4 C 3,6 C 6,5 C 88 % 19 % 1014 hPa 0,0 l/m 0,0 km/h (0 Bft) 0 min
05.11.2017 00:39 22,4 C 3,6 C 6,4 C 88 % 19 % 1014 hPa 0,0 l/m 0,0 km/h (0 Bft) 0 min
05.11.2017 00:42 22,4 C 3,6 C 6,4 C 88 % 19 % 1014 hPa 0,0 l/m 0,0 km/h (0 Bft) 0 min
05.11.2017 00:45 22,4 C 3,6 C 6,4 C 88 % 19 % 1014 hPa 0,0 l/m 0,0 km/h (0 Bft) 0 min
05.11.2017 00:50 22,4 C 3,5 C 6,3 C 88 % 19 % 1014 hPa 0,0 l/m 0,0 km/h (0 Bft) 0 min
05.11.2017 00:53 22,4 C 3,5 C 6,1 C 88 % 19 % 1014 hPa 0,0 l/m 0,0 km/h (0 Bft) 0 min
05.11.2017 00:56 22,4 C 3,4 C 6,1 C 88 % 19 % 1014 hPa 0,0 l/m 0,0 km/h (0 Bft) 0 min
05.11.2017 00:59 22,3 C 3,4 C 6,1 C 88 % 19 % 1014 hPa 0,0 l/m 0,0 km/h (0 Bft) 0 min
05.11.2017 01:02 22,3 C 3,2 C 5,9 C 88 % 19 % 1014 hPa 0,0 l/m 0,0 km/h (0 Bft) 0 min
05.11.2017 01:05 22,3 C 3,2 C 5,9 C 88 % 19 % 1014 hPa 0,0 l/m 0,0 km/h (0 Bft) 0 min
05.11.2017 01:08 22,3 C 3,2 C 6,0 C 88 % 19 % 1014 hPa 0,0 l/m 0,1 km/h (0 Bft) 0 min
05.11.2017 01:11 22,3 C 3,1 C 6,0 C 88 % 19 % 1014 hPa 0,0 l/m 0,9 km/h (0 Bft) 0 min
05.11.2017 01:14 22,3 C 3,1 C 6,0 C 88 % 19 % 1014 hPa 0,0 l/m 0,0 km/h (0 Bft) 0 min
05.11.2017 01:17 22,3 C 3,1 C 6,1 C 88 % 19 % 1014 hPa 0,0 l/m 0,0 km/h (0 Bft) 0 min
05.11.2017 01:21 22,3 C 3,1 C 6,0 C 88 % 19 % 1014 hPa 0,0 l/m 0,0 km/h (0 Bft) 0 min
05.11.2017 01:24 22,3 C 3,1 C 6,0 C 88 % 19 % 1014 hPa 0,0 l/m 0,0 km/h (0 Bft) 0 min
05.11.2017 01:27 22,3 C 3,1 C 6,0 C 88 % 19 % 1014 hPa 0,0 l/m 0,0 km/h (0 Bft) 0 min
05.11.2017 01:30 22,3 C 3,1 C 6,0 C 89 % 19 % 1014 hPa 0,0 l/m 0,0 km/h (0 Bft) 0 min
05.11.2017 01:33 22,3 C 3,1 C 6,0 C 89 % 19 % 1014 hPa 0,0 l/m 0,0 km/h (0 Bft) 0 min
05.11.2017 01:36 22,3 C 3,1 C 6,0 C 89 % 19 % 1014 hPa 0,0 l/m 0,0 km/h (0 Bft) 0 min
05.11.2017 01:39 22,3 C 3,1 C 5,8 C 89 % 19 % 1014 hPa 0,0 l/m 0,0 km/h (0 Bft) 0 min
05.11.2017 01:42 22,3 C 3,1 C 5,8 C 89 % 19 % 1014 hPa 0,0 l/m 0,0 km/h (0 Bft) 0 min
05.11.2017 01:45 22,3 C 3,1 C 5,7 C 89 % 19 % 1014 hPa 0,0 l/m 0,0 km/h (0 Bft) 0 min
05.11.2017 01:48 22,3 C 3,0 C 5,8 C 89 % 19 % 1014 hPa 0,0 l/m 0,0 km/h (0 Bft) 0 min
05.11.2017 01:51 22,3 C 3,0 C 5,8 C 89 % 19 % 1014 hPa 0,0 l/m 0,1 km/h (0 Bft) 0 min
05.11.2017 01:54 22,3 C 3,0 C 5,8 C 89 % 19 % 1014 hPa 0,0 l/m 0,8 km/h (0 Bft) 0 min
05.11.2017 01:57 22,3 C 2,9 C 5,7 C 89 % 19 % 1014 hPa 0,0 l/m 0,0 km/h (0 Bft) 0 min
05.11.2017 02:00 22,3 C 2,8 C 5,7 C 88 % 19 % 1014 hPa 0,0 l/m 2,1 km/h (1 Bft) 0 min
05.11.2017 02:03 22,3 C 2,8 C 5,7 C 88 % 19 % 1014 hPa 0,0 l/m 2,1 km/h (1 Bft) 0 min
05.11.2017 02:06 22,2 C 2,8 C 5,7 C 89 % 19 % 1014 hPa 0,0 l/m 3,2 km/h (1 Bft) 0 min
05.11.2017 02:09 22,3 C 2,8 C 5,8 C 89 % 19 % 1014 hPa 0,0 l/m 0,1 km/h (0 Bft) 0 min
05.11.2017 02:12 22,3 C 2,8 C 5,8 C 89 % 19 % 1014 hPa 0,0 l/m 0,0 km/h (0 Bft) 0 min
05.11.2017 02:15 22,3 C 2,8 C 5,7 C 89 % 19 % 1014 hPa 0,0 l/m 0,0 km/h (0 Bft) 0 min
05.11.2017 02:18 22,3 C 2,9 C 5,8 C 89 % 19 % 1014 hPa 0,0 l/m 0,0 km/h (0 Bft) 0 min
05.11.2017 02:21 22,2 C 3,0 C 5,8 C 90 % 19 % 1014 hPa 0,0 l/m 0,3 km/h (0 Bft) 0 min
05.11.2017 02:24 22,2 C 3,3 C 5,7 C 90 % 19 % 1014 hPa 0,0 l/m 0,3 km/h (0 Bft) 0 min
05.11.2017 02:27 22,3 C 3,8 C 5,7 C 90 % 19 % 1014 hPa 0,0 l/m 5,2 km/h (1 Bft) 0 min
05.11.2017 02:30 22,3 C 3,9 C 5,8 C 90 % 19 % 1014 hPa 0,0 l/m 4,4 km/h (1 Bft) 0 min
05.11.2017 02:33 22,2 C 3,9 C 5,8 C 90 % 19 % 1014 hPa 0,0 l/m 3,7 km/h (1 Bft) 0 min
05.11.2017 02:36 22,3 C 4,0 C 5,8 C 90 % 19 % 1014 hPa 0,0 l/m 0,3 km/h (0 Bft) 0 min
05.11.2017 02:39 22,3 C 3,9 C 5,7 C 90 % 19 % 1013 hPa 0,0 l/m 0,3 km/h (0 Bft) 0 min
05.11.2017 02:42 22,3 C 3,9 C 5,8 C 90 % 19 % 1013 hPa 0,0 l/m 1,3 km/h (1 Bft) 0 min
05.11.2017 02:45 22,3 C 4,3 C 5,8 C 90 % 19 % 1013 hPa 0,0 l/m 4,2 km/h (1 Bft) 0 min
05.11.2017 02:48 22,2 C 4,3 C 5,8 C 91 % 19 % 1013 hPa 0,0 l/m 1,7 km/h (1 Bft) 0 min
05.11.2017 02:51 22,2 C 4,3 C 5,9 C 90 % 19 % 1013 hPa 0,0 l/m 3,6 km/h (1 Bft) 0 min
05.11.2017 02:54 22,2 C 4,3 C 5,8 C 91 % 19 % 1013 hPa 0,0 l/m 3,6 km/h (1 Bft) 0 min
05.11.2017 02:57 22,2 C 4,3 C 5,8 C 91 % 19 % 1013 hPa 0,0 l/m 0,0 km/h (0 Bft) 0 min
05.11.2017 03:00 22,2 C 4,0 C 5,8 C 90 % 19 % 1013 hPa 0,0 l/m 0,2 km/h (0 Bft) 0 min
05.11.2017 03:03 22,2 C 4,0 C 5,8 C 90 % 19 % 1013 hPa 0,0 l/m 0,2 km/h (0 Bft) 0 min
05.11.2017 03:06 22,2 C 4,1 C 5,8 C 90 % 19 % 1013 hPa 0,0 l/m 0,0 km/h (0 Bft) 0 min
05.11.2017 03:09 22,2 C 4,1 C 5,8 C 90 % 19 % 1013 hPa 0,0 l/m 0,3 km/h (0 Bft) 0 min
05.11.2017 03:12 22,2 C 4,1 C 5,8 C 90 % 19 % 1013 hPa 0,0 l/m 0,3 km/h (0 Bft) 0 min
05.11.2017 03:15 22,2 C 4,0 C 5,8 C 90 % 19 % 1013 hPa 0,0 l/m 0,0 km/h (0 Bft) 0 min
05.11.2017 03:18 22,2 C 3,9 C 5,8 C 90 % 19 % 1013 hPa 0,0 l/m 0,0 km/h (0 Bft) 0 min
05.11.2017 03:21 22,2 C 3,9 C 5,8 C 90 % 19 % 1013 hPa 0,0 l/m 0,0 km/h (0 Bft) 0 min
05.11.2017 03:24 22,2 C 3,9 C 5,8 C 90 % 19 % 1013 hPa 0,0 l/m 0,0 km/h (0 Bft) 0 min
05.11.2017 03:27 22,2 C 3,8 C 5,8 C 90 % 19 % 1013 hPa 0,0 l/m 0,0 km/h (0 Bft) 0 min
05.11.2017 03:30 22,2 C 3,8 C 5,7 C 91 % 19 % 1013 hPa 0,0 l/m 0,0 km/h (0 Bft) 0 min
05.11.2017 03:33 22,2 C 3,6 C 5,8 C 91 % 19 % 1013 hPa 0,0 l/m 0,0 km/h (0 Bft) 0 min
05.11.2017 03:36 22,2 C 3,5 C 5,7 C 90 % 19 % 1013 hPa 0,0 l/m 0,0 km/h (0 Bft) 0 min
05.11.2017 03:39 22,2 C 3,5 C 5,7 C 90 % 19 % 1013 hPa 0,0 l/m 0,0 km/h (0 Bft) 0 min
05.11.2017 03:42 22,2 C 3,5 C 5,7 C 91 % 19 % 1012 hPa 0,0 l/m 0,0 km/h (0 Bft) 0 min
05.11.2017 03:45 22,2 C 3,5 C 5,7 C 91 % 19 % 1012 hPa 0,0 l/m 0,0 km/h (0 Bft) 0 min
05.11.2017 03:48 22,2 C 3,4 C 5,7 C 91 % 19 % 1012 hPa 0,0 l/m 0,0 km/h (0 Bft) 0 min
05.11.2017 03:51 22,2 C 3,4 C 5,7 C 91 % 19 % 1012 hPa 0,0 l/m 0,0 km/h (0 Bft) 0 min
05.11.2017 03:54 22,2 C 3,4 C 5,7 C 91 % 19 % 1012 hPa 0,0 l/m 0,0 km/h (0 Bft) 0 min
05.11.2017 03:57 22,2 C 3,4 C 5,7 C 91 % 19 % 1012 hPa 0,0 l/m 0,0 km/h (0 Bft) 0 min
05.11.2017 04:00 22,2 C 3,3 C 5,7 C 91 % 19 % 1012 hPa 0,0 l/m 0,0 km/h (0 Bft) 0 min
05.11.2017 04:03 22,2 C 3,3 C 5,7 C 91 % 19 % 1012 hPa 0,0 l/m 0,0 km/h (0 Bft) 0 min
05.11.2017 04:06 22,2 C 3,4 C 5,6 C 91 % 19 % 1012 hPa 0,0 l/m 0,0 km/h (0 Bft) 0 min
05.11.2017 04:09 22,2 C 3,4 C 5,6 C 91 % 19 % 1012 hPa 0,0 l/m 0,0 km/h (0 Bft) 0 min
05.11.2017 04:12 22,2 C 3,4 C 5,6 C 91 % 19 % 1012 hPa 0,0 l/m 0,0 km/h (0 Bft) 0 min
05.11.2017 04:15 22,2 C 3,4 C 5,6 C 91 % 19 % 1012 hPa 0,0 l/m 0,0 km/h (0 Bft) 0 min
05.11.2017 04:18 22,2 C 3,3 C 5,6 C 91 % 19 % 1012 hPa 0,0 l/m 0,0 km/h (0 Bft) 0 min
05.11.2017 04:21 22,2 C 3,3 C 5,6 C 91 % 19 % 1012 hPa 0,0 l/m 0,0 km/h (0 Bft) 0 min
05.11.2017 04:24 22,2 C 3,3 C 5,5 C 91 % 19 % 1012 hPa 0,0 l/m 0,0 km/h (0 Bft) 0 min
05.11.2017 04:27 22,2 C 3,2 C 5,4 C 91 % 19 % 1012 hPa 0,0 l/m 0,0 km/h (0 Bft) 0 min
05.11.2017 04:30 22,2 C 3,1 C 5,4 C 91 % 19 % 1012 hPa 0,0 l/m 0,1 km/h (0 Bft) 0 min
05.11.2017 04:33 22,2 C 3,1 C 5,3 C 91 % 19 % 1012 hPa 0,0 l/m 0,0 km/h (0 Bft) 0 min
05.11.2017 04:36 22,2 C 3,1 C 5,5 C 91 % 19 % 1012 hPa 0,0 l/m 0,0 km/h (0 Bft) 0 min
05.11.2017 04:39 22,2 C 3,1 C 5,4 C 91 % 19 % 1012 hPa 0,0 l/m 0,0 km/h (0 Bft) 0 min
05.11.2017 04:42 22,2 C 3,0 C 5,5 C 91 % 19 % 1012 hPa 0,0 l/m 0,0 km/h (0 Bft) 0 min
05.11.2017 04:45 22,2 C 3,0 C 5,5 C 91 % 19 % 1012 hPa 0,0 l/m 0,0 km/h (0 Bft) 0 min
05.11.2017 04:48 22,2 C 3,0 C 5,5 C 91 % 19 % 1012 hPa 0,0 l/m 0,9 km/h (0 Bft) 0 min
05.11.2017 04:51 22,2 C 4,0 C 5,7 C 91 % 19 % 1011 hPa 0,0 l/m 0,9 km/h (0 Bft) 0 min
05.11.2017 04:54 22,2 C 4,0 C 5,6 C 91 % 19 % 1011 hPa 0,0 l/m 10,1 km/h (2 Bft) 0 min
05.11.2017 04:57 22,2 C 4,5 C 5,7 C 91 % 19 % 1011 hPa 0,0 l/m 11,8 km/h (2 Bft) 0 min
05.11.2017 05:00 22,2 C 4,7 C 5,7 C 91 % 19 % 1011 hPa 0,0 l/m 10,4 km/h (2 Bft) 0 min
05.11.2017 05:03 22,2 C 4,7 C 5,7 C 91 % 19 % 1011 hPa 0,0 l/m 10,4 km/h (2 Bft) 0 min
05.11.2017 05:06 22,2 C 4,7 C 5,7 C 91 % 19 % 1011 hPa 0,0 l/m 9,8 km/h (2 Bft) 0 min
05.11.2017 05:09 22,2 C 4,7 C 5,7 C 91 % 19 % 1011 hPa 0,0 l/m 8,7 km/h (2 Bft) 0 min
05.11.2017 05:12 22,2 C 4,7 C 5,7 C 91 % 19 % 1011 hPa 0,0 l/m 9,9 km/h (2 Bft) 0 min
05.11.2017 05:15 22,2 C 4,7 C 5,8 C 91 % 19 % 1011 hPa 0,0 l/m 8,3 km/h (2 Bft) 0 min
05.11.2017 05:18 22,2 C 4,8 C 5,8 C 91 % 19 % 1011 hPa 0,0 l/m 4,2 km/h (1 Bft) 0 min
05.11.2017 05:21 22,2 C 4,8 C 5,8 C 91 % 19 % 1011 hPa 0,0 l/m 5,7 km/h (1 Bft) 0 min
05.11.2017 05:24 22,2 C 4,8 C 5,8 C 90 % 19 % 1011 hPa 0,0 l/m 4,6 km/h (1 Bft) 0 min
05.11.2017 05:27 22,2 C 4,8 C 5,8 C 90 % 19 % 1011 hPa 0,0 l/m 3,0 km/h (1 Bft) 0 min
05.11.2017 05:30 22,2 C 4,7 C 5,8 C 90 % 19 % 1011 hPa 0,0 l/m 0,1 km/h (0 Bft) 0 min
05.11.2017 05:33 22,2 C 4,8 C 5,8 C 90 % 19 % 1011 hPa 0,0 l/m 0,1 km/h (0 Bft) 0 min
05.11.2017 05:36 22,2 C 4,7 C 5,8 C 90 % 19 % 1011 hPa 0,0 l/m 0,3 km/h (0 Bft) 0 min
05.11.2017 05:39 22,2 C 4,7 C 5,8 C 90 % 19 % 1011 hPa 0,0 l/m 0,3 km/h (0 Bft) 0 min
05.11.2017 05:42 22,2 C 4,8 C 5,8 C 90 % 19 % 1011 hPa 0,0 l/m 4,2 km/h (1 Bft) 0 min
05.11.2017 05:45 22,2 C 4,8 C 5,8 C 90 % 19 % 1011 hPa 0,0 l/m 3,7 km/h (1 Bft) 0 min
05.11.2017 05:48 22,2 C 4,8 C 5,8 C 90 % 19 % 1011 hPa 0,0 l/m 0,1 km/h (0 Bft) 0 min
05.11.2017 05:51 22,2 C 4,7 C 5,8 C 90 % 19 % 1011 hPa 0,0 l/m 3,6 km/h (1 Bft) 0 min
05.11.2017 05:54 22,2 C 4,7 C 5,8 C 90 % 19 % 1011 hPa 0,0 l/m 0,1 km/h (0 Bft) 0 min
05.11.2017 05:57 22,2 C 4,6 C 5,8 C 89 % 19 % 1011 hPa 0,0 l/m 0,0 km/h (0 Bft) 0 min
05.11.2017 06:00 22,2 C 4,5 C 5,8 C 89 % 19 % 1011 hPa 0,0 l/m 0,3 km/h (0 Bft) 0 min
05.11.2017 06:03 22,2 C 4,5 C 5,8 C 89 % 19 % 1011 hPa 0,0 l/m 0,3 km/h (0 Bft) 0 min
05.11.2017 06:06 22,2 C 4,6 C 5,8 C 90 % 19 % 1011 hPa 0,0 l/m 0,3 km/h (0 Bft) 0 min
05.11.2017 06:09 22,2 C 4,4 C 5,7 C 89 % 19 % 1011 hPa 0,0 l/m 0,0 km/h (0 Bft) 0 min
05.11.2017 06:12 22,2 C 4,3 C 5,7 C 89 % 19 % 1011 hPa 0,0 l/m 0,4 km/h (0 Bft) 0 min
05.11.2017 06:15 22,2 C 4,3 C 5,7 C 89 % 19 % 1011 hPa 0,0 l/m 0,1 km/h (0 Bft) 0 min
05.11.2017 06:18 22,2 C 4,5 C 5,7 C 90 % 19 % 1011 hPa 0,0 l/m 8,1 km/h (2 Bft) 0 min
05.11.2017 06:21 22,2 C 4,7 C 5,8 C 90 % 19 % 1011 hPa 0,0 l/m 3,9 km/h (1 Bft) 0 min
05.11.2017 06:24 22,2 C 4,6 C 5,8 C 90 % 19 % 1011 hPa 0,0 l/m 3,9 km/h (1 Bft) 0 min
05.11.2017 06:27 22,2 C 4,6 C 5,8 C 90 % 19 % 1011 hPa 0,0 l/m 3,0 km/h (1 Bft) 0 min
05.11.2017 06:30 22,2 C 4,7 C 5,8 C 90 % 19 % 1011 hPa 0,0 l/m 4,9 km/h (1 Bft) 0 min
05.11.2017 06:33 22,2 C 4,6 C 5,8 C 89 % 19 % 1011 hPa 0,0 l/m 4,9 km/h (1 Bft) 0 min
05.11.2017 06:36 22,2 C 4,6 C 5,8 C 89 % 19 % 1010 hPa 0,0 l/m 4,5 km/h (1 Bft) 0 min
05.11.2017 06:39 22,2 C 4,5 C 5,8 C 89 % 19 % 1010 hPa 0,0 l/m 5,8 km/h (2 Bft) 0 min
05.11.2017 06:42 22,2 C 4,5 C 5,7 C 89 % 19 % 1010 hPa 0,0 l/m 9,5 km/h (2 Bft) 0 min
05.11.2017 06:45 22,2 C 4,5 C 5,7 C 89 % 19 % 1010 hPa 0,0 l/m 4,3 km/h (1 Bft) 0 min
05.11.2017 06:48 22,2 C 4,5 C 5,7 C 90 % 19 % 1010 hPa 0,0 l/m 0,4 km/h (0 Bft) 0 min
05.11.2017 06:51 22,2 C 4,3 C 5,7 C 90 % 19 % 1010 hPa 0,0 l/m 3,9 km/h (1 Bft) 0 min
05.11.2017 06:54 22,2 C 4,3 C 5,7 C 90 % 19 % 1010 hPa 0,0 l/m 1,1 km/h (1 Bft) 0 min
05.11.2017 06:57 22,2 C 4,3 C 5,7 C 90 % 19 % 1010 hPa 0,0 l/m 0,9 km/h (0 Bft) 0 min
05.11.2017 07:00 22,2 C 4,3 C 5,7 C 90 % 19 % 1010 hPa 0,0 l/m 3,9 km/h (1 Bft) 0 min
05.11.2017 07:03 22,2 C 4,3 C 5,7 C 90 % 19 % 1010 hPa 0,0 l/m 0,0 km/h (0 Bft) 0 min
05.11.2017 07:06 22,2 C 4,2 C 5,7 C 90 % 19 % 1010 hPa 0,0 l/m 0,0 km/h (0 Bft) 0 min
05.11.2017 07:09 22,2 C 4,1 C 5,7 C 90 % 19 % 1010 hPa 0,0 l/m 0,0 km/h (0 Bft) 0 min
05.11.2017 07:12 22,2 C 4,1 C 5,7 C 90 % 19 % 1010 hPa 0,0 l/m 0,0 km/h (0 Bft) 3 min
05.11.2017 07:15 22,2 C 4,1 C 5,6 C 90 % 19 % 1010 hPa 0,0 l/m 0,0 km/h (0 Bft) 3 min
05.11.2017 07:18 22,2 C 4,0 C 5,6 C 90 % 19 % 1010 hPa 0,0 l/m 0,5 km/h (0 Bft) 3 min
05.11.2017 07:21 22,2 C 4,0 C 5,6 C 90 % 19 % 1010 hPa 0,0 l/m 0,4 km/h (0 Bft) 3 min
05.11.2017 07:24 22,2 C 4,1 C 5,6 C 90 % 19 % 1011 hPa 0,0 l/m 5,4 km/h (1 Bft) 3 min
05.11.2017 07:27 22,2 C 4,1 C 5,6 C 90 % 19 % 1011 hPa 0,0 l/m 0,2 km/h (0 Bft) 3 min
05.11.2017 07:30 22,2 C 4,2 C 5,6 C 90 % 19 % 1011 hPa 0,0 l/m 4,6 km/h (1 Bft) 3 min
05.11.2017 07:33 22,2 C 4,3 C 5,7 C 90 % 19 % 1011 hPa 0,0 l/m 7,6 km/h (2 Bft) 3 min
05.11.2017 07:36 22,2 C 4,3 C 5,7 C 90 % 19 % 1011 hPa 0,0 l/m 7,0 km/h (2 Bft) 3 min
05.11.2017 07:39 22,1 C 4,3 C 5,7 C 90 % 19 % 1011 hPa 0,0 l/m 10,3 km/h (2 Bft) 0 min
05.11.2017 07:42 22,2 C 4,4 C 5,7 C 90 % 19 % 1010 hPa 0,0 l/m 6,3 km/h (2 Bft) 0 min
05.11.2017 07:45 22,1 C 4,4 C 5,7 C 90 % 19 % 1010 hPa 0,0 l/m 6,3 km/h (2 Bft) 0 min
05.11.2017 07:48 22,2 C 4,5 C 5,7 C 90 % 19 % 1010 hPa 0,0 l/m 9,3 km/h (2 Bft) 0 min
05.11.2017 07:51 22,2 C 4,6 C 5,7 C 90 % 19 % 1010 hPa 0,0 l/m 7,7 km/h (2 Bft) 0 min
05.11.2017 07:54 22,2 C 4,7 C 5,7 C 90 % 19 % 1010 hPa 0,0 l/m 9,6 km/h (2 Bft) 0 min
05.11.2017 07:57 22,2 C 4,7 C 5,7 C 90 % 19 % 1010 hPa 0,0 l/m 9,0 km/h (2 Bft) 0 min
05.11.2017 08:00 22,2 C 4,8 C 5,8 C 90 % 19 % 1010 hPa 0,0 l/m 8,4 km/h (2 Bft) 0 min
05.11.2017 08:03 22,2 C 4,8 C 5,8 C 90 % 19 % 1010 hPa 0,0 l/m 8,4 km/h (2 Bft) 0 min
05.11.2017 08:06 22,2 C 4,9 C 5,8 C 89 % 19 % 1010 hPa 0,0 l/m 6,8 km/h (2 Bft) 0 min
05.11.2017 08:09 22,2 C 4,9 C 5,9 C 89 % 19 % 1010 hPa 0,0 l/m 10,0 km/h (2 Bft) 0 min
05.11.2017 08:12 22,2 C 5,2 C 5,9 C 89 % 19 % 1010 hPa 0,0 l/m 10,5 km/h (2 Bft) 0 min
05.11.2017 08:15 22,2 C 5,2 C 5,9 C 89 % 19 % 1010 hPa 0,0 l/m 10,5 km/h (2 Bft) 0 min
05.11.2017 08:18 22,2 C 5,2 C 6,0 C 89 % 19 % 1010 hPa 0,0 l/m 14,7 km/h (3 Bft) 0 min
05.11.2017 08:21 22,2 C 5,3 C 6,0 C 89 % 19 % 1010 hPa 0,0 l/m 11,0 km/h (2 Bft) 0 min
05.11.2017 08:24 22,2 C 5,4 C 6,0 C 89 % 19 % 1010 hPa 0,0 l/m 10,4 km/h (2 Bft) 0 min
05.11.2017 08:27 22,2 C 5,4 C 6,0 C 89 % 19 % 1010 hPa 0,0 l/m 9,6 km/h (2 Bft) 0 min
05.11.2017 08:30 22,3 C 5,4 C 6,0 C 89 % 19 % 1010 hPa 0,0 l/m 9,6 km/h (2 Bft) 0 min
05.11.2017 08:33 22,2 C 5,5 C 6,0 C 89 % 19 % 1010 hPa 0,0 l/m 7,5 km/h (2 Bft) 0 min
05.11.2017 08:36 22,2 C 5,6 C 6,1 C 89 % 19 % 1010 hPa 0,0 l/m 7,3 km/h (2 Bft) 0 min
05.11.2017 08:39 22,2 C 5,6 C 6,1 C 89 % 19 % 1010 hPa 0,0 l/m 9,6 km/h (2 Bft) 0 min
05.11.2017 08:42 22,2 C 5,7 C 6,2 C 89 % 19 % 1010 hPa 0,0 l/m 12,1 km/h (2 Bft) 0 min
05.11.2017 08:45 22,2 C 5,8 C 6,1 C 88 % 19 % 1010 hPa 0,0 l/m 10,2 km/h (2 Bft) 0 min
05.11.2017 08:48 22,2 C 6,0 C 6,2 C 88 % 19 % 1010 hPa 0,0 l/m 7,2 km/h (2 Bft) 0 min
05.11.2017 08:51 22,2 C 6,0 C 6,3 C 88 % 19 % 1010 hPa 0,0 l/m 8,7 km/h (2 Bft) 0 min
05.11.2017 08:54 22,2 C 6,2 C 6,3 C 88 % 19 % 1010 hPa 0,0 l/m 10,4 km/h (2 Bft) 0 min
05.11.2017 08:57 22,2 C 6,2 C 6,3 C 88 % 19 % 1010 hPa 0,0 l/m 7,5 km/h (2 Bft) 0 min
05.11.2017 09:00 22,2 C 6,2 C 6,3 C 88 % 19 % 1010 hPa 0,0 l/m 5,9 km/h (2 Bft) 0 min
05.11.2017 09:03 22,2 C 6,5 C 6,6 C 88 % 19 % 1009 hPa 0,0 l/m 14,1 km/h (3 Bft) 0 min
05.11.2017 09:06 22,2 C 6,6 C 6,5 C 88 % 19 % 1009 hPa 0,0 l/m 11,8 km/h (2 Bft) 0 min
05.11.2017 09:09 22,2 C 6,8 C 6,5 C 88 % 19 % 1009 hPa 0,0 l/m 9,6 km/h (2 Bft) 0 min
05.11.2017 09:12 22,2 C 6,8 C 6,7 C 88 % 19 % 1009 hPa 0,0 l/m 10,1 km/h (2 Bft) 0 min
05.11.2017 09:15 22,2 C 6,8 C 6,8 C 87 % 19 % 1009 hPa 0,0 l/m 16,1 km/h (3 Bft) 0 min
05.11.2017 09:18 22,3 C 7,0 C 6,8 C 87 % 19 % 1009 hPa 0,0 l/m 16,5 km/h (3 Bft) 0 min
05.11.2017 09:21 22,3 C 7,0 C 6,8 C 87 % 19 % 1009 hPa 0,0 l/m 21,8 km/h (4 Bft) 0 min
05.11.2017 09:24 22,3 C 7,1 C 6,8 C 87 % 19 % 1009 hPa 0,0 l/m 20,1 km/h (4 Bft) 0 min
05.11.2017 09:27 22,3 C 7,2 C 6,9 C 87 % 19 % 1009 hPa 0,0 l/m 17,5 km/h (3 Bft) 0 min
05.11.2017 09:30 22,3 C 7,2 C 7,0 C 86 % 19 % 1009 hPa 0,0 l/m 20,3 km/h (4 Bft) 0 min
05.11.2017 09:33 22,3 C 7,2 C 7,1 C 87 % 19 % 1009 hPa 0,0 l/m 14,1 km/h (3 Bft) 0 min
05.11.2017 09:36 22,3 C 7,4 C 7,1 C 86 % 19 % 1009 hPa 0,0 l/m 12,3 km/h (3 Bft) 0 min
05.11.2017 09:39 22,3 C 7,5 C 7,2 C 86 % 19 % 1009 hPa 0,0 l/m 16,4 km/h (3 Bft) 0 min
05.11.2017 09:42 22,3 C 7,3 C 7,2 C 85 % 19 % 1009 hPa 0,0 l/m 16,2 km/h (3 Bft) 0 min
05.11.2017 09:45 22,3 C 7,4 C 7,2 C 86 % 19 % 1009 hPa 0,0 l/m 16,2 km/h (3 Bft) 0 min
05.11.2017 09:48 22,4 C 7,5 C 7,1 C 86 % 19 % 1009 hPa 0,0 l/m 15,6 km/h (3 Bft) 0 min
05.11.2017 09:51 22,3 C 7,5 C 7,2 C 86 % 19 % 1009 hPa 0,0 l/m 16,5 km/h (3 Bft) 0 min
05.11.2017 09:54 22,4 C 7,4 C 7,3 C 86 % 19 % 1009 hPa 0,0 l/m 12,7 km/h (3 Bft) 0 min
05.11.2017 09:57 22,3 C 7,4 C 7,4 C 86 % 19 % 1009 hPa 0,0 l/m 11,6 km/h (2 Bft) 0 min
05.11.2017 10:00 22,3 C 7,4 C 7,5 C 85 % 19 % 1009 hPa 0,0 l/m 17,1 km/h (3 Bft) 0 min
05.11.2017 10:03 22,4 C 7,5 C 7,4 C 86 % 19 % 1009 hPa 0,0 l/m 16,8 km/h (3 Bft) 0 min
05.11.2017 10:06 22,4 C 7,5 C 7,4 C 85 % 19 % 1009 hPa 0,0 l/m 15,6 km/h (3 Bft) 0 min
05.11.2017 10:09 22,4 C 7,6 C 7,4 C 86 % 19 % 1009 hPa 0,0 l/m 15,6 km/h (3 Bft) 0 min
05.11.2017 10:12 22,4 C 7,6 C 7,5 C 85 % 19 % 1009 hPa 0,0 l/m 20,3 km/h (4 Bft) 0 min
05.11.2017 10:15 22,4 C 7,6 C 7,6 C 85 % 19 % 1009 hPa 0,0 l/m 16,4 km/h (3 Bft) 0 min
05.11.2017 10:18 22,4 C 7,7 C 7,3 C 86 % 19 % 1009 hPa 0,0 l/m 11,6 km/h (2 Bft) 0 min
05.11.2017 10:21 22,4 C 7,7 C 7,3 C 85 % 19 % 1009 hPa 0,0 l/m 13,8 km/h (3 Bft) 0 min
05.11.2017 10:24 22,4 C 7,7 C 7,4 C 85 % 19 % 1009 hPa 0,0 l/m 17,8 km/h (3 Bft) 0 min
05.11.2017 10:27 22,4 C 7,6 C 7,5 C 85 % 19 % 1009 hPa 0,0 l/m 13,7 km/h (3 Bft) 0 min
05.11.2017 10:30 22,4 C 7,8 C 7,7 C 85 % 19 % 1009 hPa 0,0 l/m 13,8 km/h (3 Bft) 0 min
05.11.2017 10:33 22,4 C 7,6 C 7,7 C 84 % 19 % 1009 hPa 0,0 l/m 18,0 km/h (3 Bft) 0 min
05.11.2017 10:36 22,4 C 7,7 C 7,7 C 85 % 19 % 1009 hPa 0,0 l/m 15,1 km/h (3 Bft) 0 min
05.11.2017 10:39 22,5 C 8,0 C 7,7 C 85 % 19 % 1009 hPa 0,0 l/m 14,3 km/h (3 Bft) 0 min
05.11.2017 10:42 22,4 C 8,0 C 7,6 C 84 % 19 % 1009 hPa 0,0 l/m 11,8 km/h (2 Bft) 0 min
05.11.2017 10:45 22,4 C 8,1 C 7,9 C 84 % 19 % 1009 hPa 0,0 l/m 9,8 km/h (2 Bft) 0 min
05.11.2017 10:48 22,4 C 8,2 C 8,0 C 84 % 19 % 1009 hPa 0,0 l/m 14,5 km/h (3 Bft) 0 min
05.11.2017 10:51 22,5 C 8,0 C 8,0 C 84 % 19 % 1009 hPa 0,0 l/m 12,8 km/h (3 Bft) 0 min
05.11.2017 10:54 22,4 C 8,3 C 8,1 C 85 % 19 % 1009 hPa 0,0 l/m 10,1 km/h (2 Bft) 0 min
05.11.2017 10:57 22,4 C 8,4 C 8,3 C 84 % 19 % 1009 hPa 0,0 l/m 11,8 km/h (2 Bft) 0 min
05.11.2017 11:00 22,6 C 8,3 C 8,4 C 82 % 19 % 1009 hPa 0,0 l/m 11,8 km/h (2 Bft) 0 min
05.11.2017 11:03 22,6 C 8,4 C 8,3 C 83 % 19 % 1009 hPa 0,0 l/m 13,4 km/h (3 Bft) 0 min
05.11.2017 11:06 22,6 C 8,4 C 8,4 C 82 % 19 % 1009 hPa 0,0 l/m 8,3 km/h (2 Bft) 0 min
05.11.2017 11:09 22,6 C 8,4 C 8,6 C 82 % 19 % 1009 hPa 0,0 l/m 11,3 km/h (2 Bft) 0 min
05.11.2017 11:12 22,6 C 8,4 C 8,6 C 82 % 19 % 1009 hPa 0,0 l/m 13,8 km/h (3 Bft) 0 min
05.11.2017 11:15 22,6 C 8,7 C 8,7 C 83 % 19 % 1009 hPa 0,0 l/m 10,6 km/h (2 Bft) 0 min
05.11.2017 11:18 22,6 C 8,4 C 8,6 C 82 % 19 % 1009 hPa 0,0 l/m 13,5 km/h (3 Bft) 0 min
05.11.2017 11:21 22,6 C 8,4 C 8,6 C 83 % 19 % 1009 hPa 0,0 l/m 10,0 km/h (2 Bft) 0 min
05.11.2017 11:24 22,6 C 8,1 C 8,5 C 82 % 19 % 1009 hPa 0,0 l/m 9,1 km/h (2 Bft) 0 min
05.11.2017 11:27 22,6 C 8,0 C 8,4 C 83 % 19 % 1009 hPa 0,0 l/m 10,3 km/h (2 Bft) 0 min
05.11.2017 11:30 22,6 C 8,0 C 8,4 C 83 % 19 % 1009 hPa 0,0 l/m 9,3 km/h (2 Bft) 0 min
05.11.2017 11:33 22,6 C 7,7 C 8,3 C 83 % 19 % 1009 hPa 0,0 l/m 7,8 km/h (2 Bft) 0 min
05.11.2017 11:36 22,6 C 7,8 C 8,4 C 84 % 19 % 1009 hPa 0,0 l/m 7,5 km/h (2 Bft) 0 min
05.11.2017 11:39 22,6 C 7,8 C 8,4 C 84 % 19 % 1009 hPa 0,0 l/m 11,2 km/h (2 Bft) 0 min
05.11.2017 11:42 22,6 C 7,8 C 8,4 C 84 % 19 % 1009 hPa 0,0 l/m 9,6 km/h (2 Bft) 0 min
05.11.2017 11:45 22,6 C 7,8 C 8,4 C 84 % 19 % 1009 hPa 0,0 l/m 10,2 km/h (2 Bft) 0 min
05.11.2017 11:48 22,6 C 7,8 C 8,4 C 84 % 19 % 1009 hPa 0,0 l/m 6,3 km/h (2 Bft) 0 min
05.11.2017 11:51 22,6 C 8,0 C 8,5 C 84 % 19 % 1009 hPa 0,0 l/m 11,1 km/h (2 Bft) 0 min
05.11.2017 11:54 22,6 C 7,9 C 8,5 C 84 % 19 % 1009 hPa 0,0 l/m 10,8 km/h (2 Bft) 0 min
05.11.2017 11:57 22,6 C 7,8 C 8,5 C 84 % 19 % 1009 hPa 0,0 l/m 12,4 km/h (3 Bft) 0 min
05.11.2017 12:00 22,7 C 7,9 C 8,6 C 84 % 19 % 1009 hPa 0,0 l/m 12,0 km/h (2 Bft) 0 min
05.11.2017 12:03 22,6 C 8,1 C 8,6 C 84 % 19 % 1009 hPa 0,0 l/m 14,2 km/h (3 Bft) 0 min
05.11.2017 12:06 22,7 C 8,2 C 8,5 C 84 % 19 % 1009 hPa 0,0 l/m 16,0 km/h (3 Bft) 0 min
05.11.2017 12:09 22,6 C 8,2 C 8,7 C 84 % 19 % 1009 hPa 0,0 l/m 16,2 km/h (3 Bft) 0 min
05.11.2017 12:12 22,6 C 8,2 C 8,7 C 84 % 19 % 1009 hPa 0,0 l/m 8,4 km/h (2 Bft) 0 min
05.11.2017 12:15 22,6 C 8,3 C 8,7 C 84 % 19 % 1009 hPa 0,0 l/m 11,5 km/h (2 Bft) 0 min
05.11.2017 12:18 22,6 C 8,2 C 8,8 C 83 % 19 % 1009 hPa 0,0 l/m 17,6 km/h (3 Bft) 0 min
05.11.2017 12:21 22,6 C 8,1 C 8,9 C 83 % 19 % 1009 hPa 0,0 l/m 17,3 km/h (3 Bft) 0 min
05.11.2017 12:24 22,6 C 8,1 C 9,0 C 83 % 19 % 1009 hPa 0,0 l/m 13,5 km/h (3 Bft) 0 min
05.11.2017 12:27 22,6 C 8,6 C 9,5 C 83 % 19 % 1009 hPa 0,0 l/m 15,3 km/h (3 Bft) 0 min
05.11.2017 12:30 22,6 C 8,8 C 9,5 C 82 % 19 % 1009 hPa 0,0 l/m 12,3 km/h (3 Bft) 0 min
05.11.2017 12:33 22,6 C 8,9 C 9,4 C 81 % 19 % 1009 hPa 0,0 l/m 10,5 km/h (2 Bft) 0 min
05.11.2017 12:36 22,6 C 8,7 C 9,1 C 81 % 19 % 1009 hPa 0,0 l/m 12,3 km/h (3 Bft) 0 min
05.11.2017 12:39 22,6 C 8,5 C 9,1 C 82 % 19 % 1008 hPa 0,0 l/m 15,0 km/h (3 Bft) 0 min
05.11.2017 12:42 22,6 C 8,5 C 9,4 C 82 % 19 % 1008 hPa 0,0 l/m 13,5 km/h (3 Bft) 0 min
05.11.2017 12:45 22,6 C 8,4 C 9,3 C 83 % 19 % 1008 hPa 0,0 l/m 11,6 km/h (2 Bft) 0 min
05.11.2017 12:48 22,6 C 8,4 C 9,4 C 83 % 19 % 1009 hPa 0,0 l/m 12,8 km/h (3 Bft) 0 min
05.11.2017 12:51 22,6 C 8,3 C 9,3 C 83 % 19 % 1008 hPa 0,0 l/m 7,6 km/h (2 Bft) 0 min
05.11.2017 12:54 22,6 C 8,4 C 9,4 C 84 % 19 % 1008 hPa 0,0 l/m 8,5 km/h (2 Bft) 0 min
05.11.2017 12:57 22,6 C 8,4 C 9,4 C 84 % 19 % 1008 hPa 0,0 l/m 11,6 km/h (2 Bft) 0 min
05.11.2017 13:00 22,6 C 8,4 C 9,4 C 83 % 19 % 1008 hPa 0,0 l/m 6,5 km/h (2 Bft) 0 min
05.11.2017 13:03 22,6 C 8,4 C 9,5 C 83 % 19 % 1008 hPa 0,0 l/m 6,0 km/h (2 Bft) 0 min
05.11.2017 13:06 22,6 C 8,4 C 9,6 C 84 % 19 % 1008 hPa 0,0 l/m 8,3 km/h (2 Bft) 0 min
05.11.2017 13:09 22,6 C 8,4 C 9,5 C 84 % 19 % 1008 hPa 0,0 l/m 9,0 km/h (2 Bft) 0 min
05.11.2017 13:12 22,6 C 8,6 C 9,6 C 84 % 19 % 1008 hPa 0,0 l/m 8,6 km/h (2 Bft) 0 min
05.11.2017 13:15 22,6 C 8,8 C 9,8 C 83 % 19 % 1008 hPa 0,0 l/m 9,4 km/h (2 Bft) 0 min
05.11.2017 13:18 22,7 C 9,0 C 9,8 C 81 % 19 % 1008 hPa 0,0 l/m 14,4 km/h (3 Bft) 0 min
05.11.2017 13:21 22,7 C 9,0 C 10,2 C 81 % 19 % 1008 hPa 0,0 l/m 12,9 km/h (3 Bft) 0 min
05.11.2017 13:24 22,7 C 9,4 C 10,2 C 81 % 19 % 1008 hPa 0,0 l/m 12,7 km/h (3 Bft) 0 min
05.11.2017 13:27 22,7 C 9,5 C 10,2 C 81 % 19 % 1008 hPa 0,0 l/m 9,0 km/h (2 Bft) 0 min
05.11.2017 13:30 22,7 C 9,5 C 10,1 C 81 % 19 % 1008 hPa 0,0 l/m 7,7 km/h (2 Bft) 0 min
05.11.2017 13:33 22,7 C 9,6 C 10,2 C 80 % 19 % 1008 hPa 0,0 l/m 9,6 km/h (2 Bft) 0 min
05.11.2017 13:36 22,7 C 9,4 C 10,0 C 81 % 19 % 1008 hPa 0,0 l/m 10,0 km/h (2 Bft) 0 min
05.11.2017 13:39 22,7 C 9,4 C 10,5 C 81 % 19 % 1008 hPa 0,0 l/m 7,8 km/h (2 Bft) 0 min
05.11.2017 13:42 22,7 C 9,6 C 10,5 C 80 % 19 % 1008 hPa 0,0 l/m 7,6 km/h (2 Bft) 0 min
05.11.2017 13:45 22,7 C 9,5 C 10,4 C 80 % 19 % 1008 hPa 0,0 l/m 1,2 km/h (1 Bft) 0 min
05.11.2017 13:48 22,7 C 9,3 C 10,3 C 81 % 19 % 1008 hPa 0,0 l/m 5,0 km/h (1 Bft) 0 min
05.11.2017 13:51 22,7 C 9,2 C 10,3 C 82 % 19 % 1008 hPa 0,0 l/m 6,3 km/h (2 Bft) 0 min
05.11.2017 13:54 22,7 C 9,2 C 10,5 C 82 % 19 % 1008 hPa 0,0 l/m 4,3 km/h (1 Bft) 0 min
05.11.2017 13:57 22,7 C 9,1 C 10,5 C 82 % 19 % 1008 hPa 0,0 l/m 4,3 km/h (1 Bft) 0 min
05.11.2017 14:00 22,6 C 9,0 C 10,4 C 82 % 19 % 1008 hPa 0,0 l/m 4,5 km/h (1 Bft) 0 min
05.11.2017 14:03 22,7 C 8,9 C 10,5 C 82 % 19 % 1008 hPa 0,0 l/m 4,3 km/h (1 Bft) 0 min
05.11.2017 14:06 22,7 C 8,8 C 10,5 C 83 % 19 % 1008 hPa 0,0 l/m 4,9 km/h (1 Bft) 0 min
05.11.2017 14:09 22,6 C 8,8 C 10,4 C 83 % 19 % 1008 hPa 0,0 l/m 6,9 km/h (2 Bft) 0 min
05.11.2017 14:12 22,6 C 8,8 C 10,5 C 83 % 19 % 1008 hPa 0,0 l/m 2,1 km/h (1 Bft) 0 min
05.11.2017 14:15 22,6 C 8,8 C 10,3 C 83 % 19 % 1008 hPa 0,0 l/m 2,3 km/h (1 Bft) 0 min
05.11.2017 14:18 22,6 C 8,8 C 10,3 C 84 % 19 % 1008 hPa 0,0 l/m 2,2 km/h (1 Bft) 0 min
05.11.2017 14:21 22,6 C 8,7 C 10,3 C 84 % 19 % 1008 hPa 0,0 l/m 4,8 km/h (1 Bft) 0 min
05.11.2017 14:24 22,6 C 8,7 C 10,2 C 85 % 19 % 1008 hPa 0,0 l/m 3,8 km/h (1 Bft) 0 min
05.11.2017 14:27 22,6 C 8,6 C 10,1 C 85 % 19 % 1008 hPa 0,0 l/m 3,9 km/h (1 Bft) 0 min
05.11.2017 14:30 22,6 C 8,7 C 10,2 C 85 % 19 % 1008 hPa 0,0 l/m 3,3 km/h (1 Bft) 0 min
05.11.2017 14:33 22,6 C 8,7 C 10,1 C 85 % 19 % 1008 hPa 0,0 l/m 3,3 km/h (1 Bft) 0 min
05.11.2017 14:36 22,6 C 8,6 C 10,1 C 85 % 19 % 1008 hPa 0,0 l/m 4,2 km/h (1 Bft) 0 min
05.11.2017 14:39 22,6 C 8,6 C 10,1 C 85 % 19 % 1008 hPa 0,0 l/m 2,2 km/h (1 Bft) 0 min
05.11.2017 14:42 22,6 C 8,6 C 10,0 C 85 % 19 % 1008 hPa 0,0 l/m 0,0 km/h (0 Bft) 0 min
05.11.2017 14:45 22,6 C 8,5 C 10,1 C 85 % 19 % 1008 hPa 0,0 l/m 0,1 km/h (0 Bft) 0 min
05.11.2017 14:48 22,6 C 8,5 C 10,1 C 85 % 19 % 1008 hPa 0,0 l/m 0,0 km/h (0 Bft) 0 min
05.11.2017 14:51 22,6 C 8,5 C 10,1 C 85 % 19 % 1008 hPa 0,0 l/m 0,0 km/h (0 Bft) 0 min
05.11.2017 14:54 22,6 C 8,6 C 10,1 C 85 % 19 % 1009 hPa 0,0 l/m 0,1 km/h (0 Bft) 0 min
05.11.2017 14:57 22,6 C 8,6 C 10,0 C 85 % 19 % 1009 hPa 0,0 l/m 0,4 km/h (0 Bft) 0 min
05.11.2017 15:00 22,6 C 8,6 C 10,0 C 85 % 19 % 1009 hPa 0,0 l/m 0,1 km/h (0 Bft) 0 min
05.11.2017 15:03 22,6 C 8,6 C 10,0 C 85 % 19 % 1009 hPa 0,0 l/m 0,0 km/h (0 Bft) 0 min
05.11.2017 15:06 22,6 C 8,5 C 10,0 C 85 % 19 % 1009 hPa 0,0 l/m 0,0 km/h (0 Bft) 0 min
05.11.2017 15:09 22,6 C 8,4 C 9,9 C 85 % 19 % 1009 hPa 0,0 l/m 0,0 km/h (0 Bft) 0 min
05.11.2017 15:12 22,6 C 8,5 C 9,8 C 85 % 19 % 1009 hPa 0,0 l/m 0,0 km/h (0 Bft) 0 min
05.11.2017 15:15 22,6 C 8,4 C 9,8 C 85 % 19 % 1009 hPa 0,0 l/m 0,0 km/h (0 Bft) 0 min
05.11.2017 15:18 22,6 C 8,4 C 9,8 C 85 % 19 % 1009 hPa 0,0 l/m 0,0 km/h (0 Bft) 0 min
05.11.2017 15:21 22,6 C 8,4 C 9,8 C 85 % 19 % 1009 hPa 0,0 l/m 0,0 km/h (0 Bft) 0 min
05.11.2017 15:24 22,6 C 8,4 C 9,8 C 85 % 19 % 1009 hPa 0,0 l/m 0,0 km/h (0 Bft) 0 min
05.11.2017 15:27 22,6 C 8,4 C 9,8 C 85 % 19 % 1009 hPa 0,0 l/m 0,0 km/h (0 Bft) 0 min
05.11.2017 15:30 22,6 C 8,4 C 9,7 C 85 % 19 % 1009 hPa 0,0 l/m 0,0 km/h (0 Bft) 0 min
05.11.2017 15:33 22,6 C 8,4 C 9,6 C 85 % 19 % 1009 hPa 0,0 l/m 0,0 km/h (0 Bft) 0 min
05.11.2017 15:36 22,6 C 8,4 C 9,7 C 86 % 19 % 1009 hPa 0,0 l/m 0,0 km/h (0 Bft) 0 min
05.11.2017 15:39 22,6 C 8,4 C 9,7 C 86 % 19 % 1009 hPa 0,0 l/m 0,0 km/h (0 Bft) 0 min
05.11.2017 15:42 22,6 C 8,3 C 9,7 C 86 % 19 % 1009 hPa 0,0 l/m 0,0 km/h (0 Bft) 0 min
05.11.2017 15:45 22,6 C 8,3 C 9,7 C 86 % 19 % 1009 hPa 0,0 l/m 0,0 km/h (0 Bft) 0 min
05.11.2017 15:48 22,6 C 8,3 C 9,6 C 86 % 19 % 1009 hPa 0,0 l/m 0,0 km/h (0 Bft) 0 min
05.11.2017 15:51 22,6 C 8,2 C 9,6 C 86 % 19 % 1009 hPa 0,0 l/m 0,0 km/h (0 Bft) 0 min
05.11.2017 15:54 22,6 C 8,1 C 9,6 C 86 % 19 % 1009 hPa 0,0 l/m 0,0 km/h (0 Bft) 0 min
05.11.2017 15:57 22,5 C 8,2 C 9,5 C 86 % 19 % 1009 hPa 0,0 l/m 0,0 km/h (0 Bft) 0 min
05.11.2017 16:00 22,6 C 8,1 C 9,6 C 87 % 19 % 1009 hPa 0,0 l/m 0,0 km/h (0 Bft) 0 min
05.11.2017 16:03 22,6 C 8,1 C 9,5 C 87 % 19 % 1009 hPa 0,0 l/m 0,0 km/h (0 Bft) 3 min
05.11.2017 16:06 22,6 C 8,0 C 9,5 C 87 % 19 % 1009 hPa 0,0 l/m 0,0 km/h (0 Bft) 3 min
05.11.2017 16:09 22,6 C 8,0 C 9,5 C 87 % 19 % 1009 hPa 0,0 l/m 0,0 km/h (0 Bft) 3 min
05.11.2017 16:12 22,6 C 8,0 C 9,4 C 87 % 19 % 1009 hPa 0,0 l/m 0,0 km/h (0 Bft) 3 min
05.11.2017 16:15 22,6 C 8,1 C 9,4 C 87 % 19 % 1009 hPa 0,0 l/m 0,0 km/h (0 Bft) 3 min
05.11.2017 16:18 22,6 C 8,0 C 9,5 C 87 % 19 % 1009 hPa 0,0 l/m 0,0 km/h (0 Bft) 3 min
05.11.2017 16:21 22,6 C 8,0 C 9,4 C 87 % 19 % 1009 hPa 0,0 l/m 0,0 km/h (0 Bft) 3 min
05.11.2017 16:24 22,6 C 8,1 C 9,4 C 87 % 19 % 1009 hPa 0,0 l/m 0,0 km/h (0 Bft) 3 min
05.11.2017 16:27 22,6 C 8,1 C 9,3 C 87 % 19 % 1009 hPa 0,0 l/m 0,0 km/h (0 Bft) 3 min
05.11.2017 16:30 22,6 C 8,1 C 9,3 C 87 % 19 % 1010 hPa 0,0 l/m 0,0 km/h (0 Bft) 0 min
05.11.2017 16:33 22,6 C 8,2 C 9,2 C 87 % 19 % 1010 hPa 0,0 l/m 0,0 km/h (0 Bft) 0 min
05.11.2017 16:36 22,6 C 8,2 C 9,3 C 87 % 19 % 1010 hPa 0,0 l/m 0,0 km/h (0 Bft) 0 min
05.11.2017 16:39 22,6 C 8,2 C 9,3 C 87 % 19 % 1010 hPa 0,0 l/m 0,0 km/h (0 Bft) 0 min
05.11.2017 16:42 22,6 C 8,2 C 9,3 C 87 % 19 % 1010 hPa 0,0 l/m 0,0 km/h (0 Bft) 0 min
05.11.2017 16:45 22,7 C 8,2 C 9,3 C 87 % 19 % 1010 hPa 0,0 l/m 0,0 km/h (0 Bft) 0 min
05.11.2017 16:48 22,7 C 8,2 C 9,3 C 87 % 19 % 1010 hPa 0,0 l/m 0,0 km/h (0 Bft) 0 min
05.11.2017 16:51 22,6 C 8,2 C 9,3 C 87 % 19 % 1010 hPa 0,0 l/m 0,0 km/h (0 Bft) 0 min
05.11.2017 16:54 22,6 C 8,2 C 9,3 C 87 % 19 % 1010 hPa 0,0 l/m 0,0 km/h (0 Bft) 0 min
05.11.2017 16:57 22,6 C 8,2 C 9,2 C 87 % 19 % 1010 hPa 0,0 l/m 0,0 km/h (0 Bft) 0 min
05.11.2017 17:00 22,6 C 8,2 C 9,2 C 87 % 19 % 1010 hPa 0,0 l/m 0,0 km/h (0 Bft) 0 min
05.11.2017 17:03 22,6 C 8,2 C 9,2 C 87 % 19 % 1010 hPa 0,0 l/m 0,0 km/h (0 Bft) 0 min
05.11.2017 17:06 22,6 C 8,2 C 9,2 C 87 % 19 % 1010 hPa 0,0 l/m 0,0 km/h (0 Bft) 0 min
05.11.2017 17:09 22,6 C 8,2 C 9,2 C 88 % 19 % 1010 hPa 0,0 l/m 0,0 km/h (0 Bft) 0 min
05.11.2017 17:12 22,6 C 8,2 C 9,2 C 88 % 19 % 1010 hPa 0,0 l/m 0,0 km/h (0 Bft) 0 min
05.11.2017 17:15 22,6 C 8,2 C 9,2 C 88 % 19 % 1011 hPa 0,0 l/m 0,0 km/h (0 Bft) 0 min
05.11.2017 17:18 22,6 C 8,2 C 9,2 C 88 % 19 % 1011 hPa 0,0 l/m 0,0 km/h (0 Bft) 0 min
05.11.2017 17:21 22,6 C 8,3 C 9,2 C 88 % 19 % 1011 hPa 0,0 l/m 0,0 km/h (0 Bft) 0 min
05.11.2017 17:24 22,6 C 8,3 C 9,2 C 88 % 19 % 1011 hPa 0,0 l/m 0,0 km/h (0 Bft) 0 min
05.11.2017 17:27 22,7 C 8,3 C 9,2 C 88 % 19 % 1011 hPa 0,0 l/m 0,0 km/h (0 Bft) 0 min
05.11.2017 17:30 22,8 C 8,3 C 9,4 C 88 % 19 % 1011 hPa 0,0 l/m 4,3 km/h (1 Bft) 0 min
05.11.2017 17:33 22,8 C 8,6 C 9,4 C 88 % 19 % 1011 hPa 0,0 l/m 20,1 km/h (4 Bft) 0 min
05.11.2017 17:36 22,8 C 8,7 C 9,5 C 88 % 19 % 1011 hPa 0,3 l/m 9,0 km/h (2 Bft) 0 min
05.11.2017 17:39 22,8 C 8,9 C 9,5 C 88 % 19 % 1011 hPa 0,3 l/m 9,0 km/h (2 Bft) 0 min
05.11.2017 17:42 22,8 C 9,0 C 9,5 C 88 % 19 % 1011 hPa 0,3 l/m 9,0 km/h (2 Bft) 0 min
05.11.2017 17:45 22,8 C 9,0 C 9,6 C 88 % 19 % 1011 hPa 0,0 l/m 18,8 km/h (3 Bft) 0 min
05.11.2017 17:48 22,7 C 9,1 C 9,5 C 88 % 19 % 1011 hPa 0,0 l/m 18,6 km/h (3 Bft) 0 min
05.11.2017 17:51 22,7 C 9,0 C 9,5 C 88 % 19 % 1012 hPa 0,3 l/m 22,3 km/h (4 Bft) 0 min
05.11.2017 17:54 22,7 C 8,9 C 9,3 C 88 % 19 % 1012 hPa 0,3 l/m 29,7 km/h (5 Bft) 0 min
05.11.2017 17:57 22,7 C 8,8 C 9,3 C 88 % 19 % 1012 hPa 0,0 l/m 18,4 km/h (3 Bft) 0 min
05.11.2017 18:00 22,7 C 8,7 C 9,2 C 88 % 19 % 1012 hPa 0,3 l/m 20,8 km/h (4 Bft) 0 min
05.11.2017 18:03 22,7 C 8,6 C 9,2 C 88 % 19 % 1012 hPa 0,0 l/m 13,3 km/h (3 Bft) 0 min
05.11.2017 18:06 22,5 C 8,5 C 9,2 C 88 % 19 % 1012 hPa 0,0 l/m 16,3 km/h (3 Bft) 0 min
05.11.2017 18:09 22,0 C 8,4 C 9,2 C 88 % 19 % 1012 hPa 0,0 l/m 20,6 km/h (4 Bft) 0 min
05.11.2017 18:12 22,0 C 8,3 C 9,0 C 88 % 19 % 1012 hPa 0,0 l/m 21,7 km/h (4 Bft) 0 min
05.11.2017 18:15 20,9 C 8,2 C 9,0 C 88 % 19 % 1012 hPa 0,0 l/m 29,5 km/h (5 Bft) 0 min
05.11.2017 18:18 20,6 C 8,2 C 8,9 C 88 % 19 % 1012 hPa 0,3 l/m 18,5 km/h (3 Bft) 0 min
05.11.2017 18:21 20,5 C 8,0 C 8,9 C 88 % 19 % 1012 hPa 0,0 l/m 23,5 km/h (4 Bft) 0 min
05.11.2017 18:24 20,9 C 8,0 C 8,8 C 88 % 19 % 1013 hPa 0,0 l/m 17,5 km/h (3 Bft) 0 min
05.11.2017 18:27 21,2 C 8,0 C 8,8 C 88 % 19 % 1013 hPa 0,0 l/m 15,3 km/h (3 Bft) 0 min
05.11.2017 18:30 21,4 C 7,9 C 8,8 C 88 % 19 % 1013 hPa 0,0 l/m 21,0 km/h (4 Bft) 0 min
05.11.2017 18:33 21,6 C 7,9 C 8,8 C 88 % 19 % 1013 hPa 0,0 l/m 16,8 km/h (3 Bft) 0 min
05.11.2017 18:36 21,7 C 7,9 C 8,7 C 88 % 19 % 1013 hPa 0,0 l/m 27,5 km/h (4 Bft) 0 min
05.11.2017 18:39 21,8 C 7,8 C 8,7 C 88 % 19 % 1013 hPa 0,0 l/m 16,5 km/h (3 Bft) 0 min
05.11.2017 18:42 21,8 C 7,9 C 8,7 C 88 % 19 % 1013 hPa 0,0 l/m 33,9 km/h (5 Bft) 0 min
05.11.2017 18:45 21,8 C 7,8 C 8,7 C 88 % 19 % 1013 hPa 0,0 l/m 19,2 km/h (3 Bft) 0 min
05.11.2017 18:48 22,0 C 7,8 C 8,6 C 88 % 19 % 1013 hPa 0,0 l/m 19,5 km/h (3 Bft) 0 min
05.11.2017 18:51 22,0 C 7,8 C 8,6 C 88 % 19 % 1013 hPa 0,0 l/m 26,1 km/h (4 Bft) 0 min
05.11.2017 18:54 22,0 C 7,8 C 8,6 C 88 % 19 % 1013 hPa 0,3 l/m 17,1 km/h (3 Bft) 0 min
05.11.2017 18:57 22,1 C 7,8 C 8,6 C 88 % 19 % 1013 hPa 0,0 l/m 18,8 km/h (3 Bft) 0 min
05.11.2017 19:00 22,1 C 7,8 C 8,5 C 88 % 19 % 1013 hPa 0,0 l/m 18,8 km/h (3 Bft) 0 min
05.11.2017 19:03 22,2 C 7,7 C 8,5 C 88 % 19 % 1013 hPa 0,0 l/m 20,3 km/h (4 Bft) 0 min
05.11.2017 19:06 22,2 C 7,7 C 8,5 C 88 % 19 % 1013 hPa 0,0 l/m 18,9 km/h (3 Bft) 0 min
05.11.2017 19:09 22,2 C 7,7 C 8,5 C 88 % 19 % 1013 hPa 0,3 l/m 18,9 km/h (3 Bft) 0 min
05.11.2017 19:12 22,2 C 7,6 C 8,4 C 88 % 19 % 1013 hPa 0,0 l/m 14,8 km/h (3 Bft) 0 min
05.11.2017 19:15 22,2 C 7,6 C 8,5 C 88 % 19 % 1013 hPa 0,0 l/m 18,8 km/h (3 Bft) 0 min
05.11.2017 19:18 22,2 C 7,6 C 8,3 C 88 % 19 % 1013 hPa 0,0 l/m 15,0 km/h (3 Bft) 0 min
05.11.2017 19:21 22,2 C 7,6 C 8,3 C 88 % 19 % 1013 hPa 0,0 l/m 17,0 km/h (3 Bft) 0 min
05.11.2017 19:24 22,2 C 7,6 C 8,3 C 88 % 19 % 1013 hPa 0,0 l/m 11,6 km/h (2 Bft) 0 min
05.11.2017 19:27 22,3 C 7,6 C 8,3 C 88 % 19 % 1013 hPa 0,0 l/m 11,6 km/h (2 Bft) 0 min
05.11.2017 19:30 22,3 C 7,6 C 8,3 C 88 % 19 % 1013 hPa 0,0 l/m 7,2 km/h (2 Bft) 0 min
05.11.2017 19:33 22,3 C 7,6 C 8,3 C 88 % 19 % 1013 hPa 0,0 l/m 8,1 km/h (2 Bft) 0 min
05.11.2017 19:36 22,3 C 7,5 C 8,2 C 88 % 19 % 1013 hPa 0,0 l/m 6,1 km/h (2 Bft) 0 min
05.11.2017 19:39 22,3 C 7,5 C 8,3 C 89 % 19 % 1013 hPa 0,0 l/m 4,4 km/h (1 Bft) 0 min
05.11.2017 19:42 22,3 C 7,5 C 8,2 C 89 % 19 % 1013 hPa 0,0 l/m 2,5 km/h (1 Bft) 0 min
05.11.2017 19:45 22,3 C 7,5 C 8,2 C 89 % 19 % 1013 hPa 0,0 l/m 2,5 km/h (1 Bft) 0 min
05.11.2017 19:48 22,3 C 7,5 C 8,2 C 89 % 19 % 1013 hPa 0,3 l/m 0,0 km/h (0 Bft) 0 min
05.11.2017 19:51 22,3 C 7,5 C 8,3 C 89 % 19 % 1013 hPa 0,0 l/m 0,4 km/h (0 Bft) 0 min
05.11.2017 19:54 22,4 C 7,4 C 8,3 C 89 % 19 % 1013 hPa 0,0 l/m 0,3 km/h (0 Bft) 0 min
05.11.2017 19:57 22,4 C 7,4 C 8,3 C 89 % 19 % 1013 hPa 0,0 l/m 0,4 km/h (0 Bft) 0 min
05.11.2017 20:00 22,3 C 7,4 C 8,2 C 90 % 19 % 1013 hPa 0,0 l/m 3,5 km/h (1 Bft) 0 min
05.11.2017 20:03 22,3 C 7,4 C 8,2 C 89 % 19 % 1013 hPa 0,0 l/m 8,8 km/h (2 Bft) 0 min
05.11.2017 20:06 22,3 C 7,4 C 8,2 C 89 % 19 % 1013 hPa 0,0 l/m 6,2 km/h (2 Bft) 0 min
05.11.2017 20:09 22,3 C 7,4 C 8,2 C 89 % 19 % 1014 hPa 0,0 l/m 5,5 km/h (1 Bft) 0 min
05.11.2017 20:12 22,3 C 7,4 C 8,1 C 89 % 19 % 1014 hPa 0,0 l/m 12,3 km/h (3 Bft) 0 min
05.11.2017 20:15 22,3 C 7,4 C 8,1 C 89 % 19 % 1014 hPa 0,0 l/m 13,3 km/h (3 Bft) 0 min
05.11.2017 20:18 22,4 C 7,4 C 8,1 C 88 % 19 % 1014 hPa 0,0 l/m 14,6 km/h (3 Bft) 0 min
05.11.2017 20:21 22,4 C 7,4 C 8,1 C 88 % 19 % 1014 hPa 0,0 l/m 6,8 km/h (2 Bft) 0 min
05.11.2017 20:24 22,4 C 7,3 C 8,1 C 88 % 19 % 1014 hPa 0,0 l/m 6,8 km/h (2 Bft) 0 min
05.11.2017 20:27 22,4 C 7,3 C 8,1 C 88 % 19 % 1014 hPa 0,0 l/m 7,0 km/h (2 Bft) 0 min
05.11.2017 20:30 22,4 C 7,3 C 8,1 C 89 % 19 % 1014 hPa 0,0 l/m 5,2 km/h (1 Bft) 0 min
05.11.2017 20:33 22,3 C 7,3 C 8,1 C 89 % 19 % 1014 hPa 0,0 l/m 0,4 km/h (0 Bft) 0 min
05.11.2017 20:36 22,4 C 7,2 C 8,1 C 89 % 19 % 1014 hPa 0,0 l/m 0,9 km/h (0 Bft) 0 min
05.11.2017 20:39 22,4 C 7,2 C 8,0 C 89 % 19 % 1014 hPa 0,0 l/m 0,4 km/h (0 Bft) 0 min
05.11.2017 20:42 22,4 C 7,2 C 8,2 C 89 % 19 % 1014 hPa 0,0 l/m 1,0 km/h (0 Bft) 0 min
05.11.2017 20:45 22,4 C 7,2 C 8,1 C 89 % 19 % 1014 hPa 0,3 l/m 0,7 km/h (0 Bft) 0 min
05.11.2017 20:48 22,4 C 7,2 C 8,1 C 89 % 19 % 1014 hPa 0,0 l/m 0,2 km/h (0 Bft) 0 min
05.11.2017 20:51 22,4 C 7,2 C 8,0 C 89 % 19 % 1014 hPa 0,0 l/m 1,6 km/h (1 Bft) 0 min
05.11.2017 20:54 22,4 C 7,2 C 8,0 C 89 % 19 % 1014 hPa 0,0 l/m 0,2 km/h (0 Bft) 0 min
05.11.2017 20:57 22,4 C 7,1 C 8,1 C 89 % 19 % 1014 hPa 0,0 l/m 0,0 km/h (0 Bft) 0 min
05.11.2017 21:00 22,4 C 7,1 C 7,7 C 89 % 19 % 1014 hPa 0,0 l/m 4,0 km/h (1 Bft) 0 min
05.11.2017 21:03 22,4 C 7,1 C 7,5 C 89 % 19 % 1014 hPa 0,0 l/m 7,1 km/h (2 Bft) 0 min
05.11.2017 21:06 22,4 C 6,7 C 7,5 C 88 % 19 % 1014 hPa 0,0 l/m 1,5 km/h (1 Bft) 0 min
05.11.2017 21:09 22,4 C 6,6 C 7,6 C 89 % 19 % 1014 hPa 0,0 l/m 1,1 km/h (1 Bft) 0 min
05.11.2017 21:12 22,4 C 6,6 C 7,9 C 89 % 19 % 1014 hPa 0,0 l/m 0,3 km/h (0 Bft) 0 min
05.11.2017 21:15 22,4 C 6,4 C 7,8 C 89 % 19 % 1014 hPa 0,0 l/m 4,8 km/h (1 Bft) 0 min
05.11.2017 21:18 22,4 C 6,4 C 7,7 C 89 % 19 % 1014 hPa 0,0 l/m 5,6 km/h (1 Bft) 0 min
05.11.2017 21:21 22,4 C 6,3 C 7,8 C 89 % 19 % 1014 hPa 0,0 l/m 2,8 km/h (1 Bft) 0 min
05.11.2017 21:24 22,4 C 6,2 C 7,5 C 88 % 19 % 1014 hPa 0,0 l/m 8,6 km/h (2 Bft) 0 min
05.11.2017 21:27 22,4 C 6,2 C 7,5 C 89 % 19 % 1014 hPa 0,0 l/m 5,8 km/h (2 Bft) 0 min
05.11.2017 21:30 22,3 C 6,1 C 7,2 C 89 % 19 % 1014 hPa 0,0 l/m 10,9 km/h (2 Bft) 0 min
05.11.2017 21:33 22,3 C 6,1 C 7,5 C 89 % 19 % 1014 hPa 0,0 l/m 10,9 km/h (2 Bft) 0 min
05.11.2017 21:36 22,3 C 6,0 C 7,5 C 89 % 19 % 1014 hPa 0,0 l/m 2,8 km/h (1 Bft) 0 min
05.11.2017 21:39 22,3 C 6,0 C 7,5 C 89 % 19 % 1014 hPa 0,0 l/m 4,4 km/h (1 Bft) 0 min
05.11.2017 21:42 22,3 C 6,0 C 7,3 C 89 % 19 % 1014 hPa 0,3 l/m 1,8 km/h (1 Bft) 0 min
05.11.2017 21:45 22,3 C 6,0 C 7,4 C 89 % 19 % 1014 hPa 0,0 l/m 2,2 km/h (1 Bft) 0 min
05.11.2017 21:48 22,3 C 6,0 C 7,4 C 89 % 19 % 1014 hPa 0,0 l/m 5,6 km/h (1 Bft) 0 min
05.11.2017 21:51 22,3 C 5,9 C 7,3 C 89 % 19 % 1014 hPa 0,0 l/m 1,1 km/h (1 Bft) 0 min
05.11.2017 21:54 22,3 C 5,9 C 7,3 C 89 % 19 % 1015 hPa 0,0 l/m 3,3 km/h (1 Bft) 0 min
05.11.2017 21:57 22,3 C 5,9 C 7,3 C 89 % 19 % 1015 hPa 0,0 l/m 8,7 km/h (2 Bft) 0 min
05.11.2017 22:00 22,3 C 5,9 C 7,3 C 90 % 19 % 1015 hPa 0,0 l/m 8,7 km/h (2 Bft) 0 min
05.11.2017 22:03 22,3 C 5,9 C 7,2 C 90 % 19 % 1015 hPa 0,0 l/m 3,9 km/h (1 Bft) 0 min
05.11.2017 22:06 22,3 C 5,9 C 7,3 C 90 % 19 % 1015 hPa 0,0 l/m 5,5 km/h (1 Bft) 0 min
05.11.2017 22:09 22,2 C 5,8 C 7,3 C 90 % 19 % 1015 hPa 0,0 l/m 4,5 km/h (1 Bft) 0 min
05.11.2017 22:12 22,3 C 5,9 C 7,3 C 90 % 19 % 1015 hPa 0,0 l/m 5,1 km/h (1 Bft) 0 min
05.11.2017 22:15 22,2 C 5,8 C 7,2 C 90 % 19 % 1015 hPa 0,0 l/m 3,0 km/h (1 Bft) 0 min
05.11.2017 22:18 22,2 C 5,8 C 7,3 C 90 % 19 % 1015 hPa 0,0 l/m 3,1 km/h (1 Bft) 0 min
05.11.2017 22:21 22,2 C 5,8 C 7,2 C 90 % 19 % 1015 hPa 0,0 l/m 5,9 km/h (2 Bft) 0 min
05.11.2017 22:24 22,2 C 5,8 C 7,2 C 90 % 19 % 1015 hPa 0,0 l/m 5,2 km/h (1 Bft) 0 min
05.11.2017 22:27 22,2 C 5,9 C 7,2 C 90 % 19 % 1015 hPa 0,3 l/m 3,3 km/h (1 Bft) 0 min
05.11.2017 22:30 22,2 C 5,8 C 7,2 C 90 % 19 % 1015 hPa 0,0 l/m 4,0 km/h (1 Bft) 0 min
05.11.2017 22:33 22,2 C 5,8 C 7,2 C 90 % 19 % 1015 hPa 0,0 l/m 4,3 km/h (1 Bft) 0 min
05.11.2017 22:36 22,2 C 5,8 C 7,2 C 90 % 19 % 1015 hPa 0,0 l/m 4,8 km/h (1 Bft) 0 min
05.11.2017 22:39 22,2 C 5,8 C 7,2 C 90 % 19 % 1015 hPa 0,0 l/m 0,4 km/h (0 Bft) 0 min
05.11.2017 22:42 22,2 C 5,8 C 7,2 C 90 % 19 % 1014 hPa 0,0 l/m 0,4 km/h (0 Bft) 0 min
05.11.2017 22:45 22,2 C 5,8 C 7,1 C 90 % 19 % 1014 hPa 0,0 l/m 0,4 km/h (0 Bft) 0 min
05.11.2017 22:48 22,2 C 5,8 C 7,2 C 90 % 19 % 1014 hPa 0,0 l/m 3,0 km/h (1 Bft) 0 min
05.11.2017 22:51 22,2 C 5,8 C 7,2 C 90 % 19 % 1014 hPa 0,0 l/m 0,6 km/h (0 Bft) 0 min
05.11.2017 22:54 22,2 C 5,9 C 7,2 C 90 % 19 % 1014 hPa 0,0 l/m 0,6 km/h (0 Bft) 0 min
05.11.2017 22:57 22,2 C 5,9 C 7,2 C 90 % 19 % 1014 hPa 0,0 l/m 3,0 km/h (1 Bft) 0 min
05.11.2017 23:00 22,2 C 5,9 C 7,1 C 90 % 19 % 1015 hPa 0,0 l/m 3,0 km/h (1 Bft) 0 min
05.11.2017 23:03 22,2 C 5,8 C 7,1 C 90 % 19 % 1015 hPa 0,0 l/m 5,3 km/h (1 Bft) 0 min
05.11.2017 23:06 22,2 C 5,9 C 7,2 C 90 % 19 % 1015 hPa 0,0 l/m 2,8 km/h (1 Bft) 0 min
05.11.2017 23:09 22,2 C 5,9 C 7,2 C 90 % 19 % 1015 hPa 0,0 l/m 3,4 km/h (1 Bft) 0 min
05.11.2017 23:12 22,2 C 5,9 C 7,2 C 90 % 19 % 1015 hPa 0,0 l/m 0,6 km/h (0 Bft) 0 min
05.11.2017 23:15 22,2 C 5,9 C 7,2 C 90 % 19 % 1015 hPa 0,0 l/m 0,8 km/h (0 Bft) 0 min
05.11.2017 23:18 22,2 C 5,9 C 7,2 C 90 % 19 % 1015 hPa 0,0 l/m 4,5 km/h (1 Bft) 0 min
05.11.2017 23:21 22,2 C 5,9 C 7,1 C 90 % 19 % 1015 hPa 0,0 l/m 0,4 km/h (0 Bft) 0 min
05.11.2017 23:24 22,2 C 5,9 C 7,2 C 90 % 19 % 1015 hPa 0,0 l/m 0,4 km/h (0 Bft) 0 min
05.11.2017 23:27 22,2 C 5,9 C 7,1 C 90 % 19 % 1015 hPa 0,0 l/m 3,7 km/h (1 Bft) 0 min
05.11.2017 23:30 22,2 C 6,0 C 7,1 C 90 % 19 % 1015 hPa 0,0 l/m 0,1 km/h (0 Bft) 0 min
05.11.2017 23:33 22,2 C 6,0 C 7,2 C 90 % 19 % 1015 hPa 0,0 l/m 0,3 km/h (0 Bft) 0 min
05.11.2017 23:36 22,2 C 6,0 C 7,1 C 90 % 19 % 1015 hPa 0,0 l/m 0,8 km/h (0 Bft) 0 min
05.11.2017 23:39 22,2 C 6,0 C 7,2 C 90 % 19 % 1015 hPa 0,0 l/m 0,3 km/h (0 Bft) 0 min
05.11.2017 23:42 22,2 C 6,0 C 7,1 C 90 % 19 % 1015 hPa 0,0 l/m 3,2 km/h (1 Bft) 0 min
05.11.2017 23:45 22,2 C 6,0 C 7,2 C 90 % 19 % 1015 hPa 0,0 l/m 0,6 km/h (0 Bft) 0 min
05.11.2017 23:48 22,2 C 6,0 C 7,2 C 90 % 19 % 1015 hPa 0,0 l/m 0,5 km/h (0 Bft) 0 min
05.11.2017 23:51 22,2 C 6,0 C 7,2 C 90 % 19 % 1015 hPa 0,0 l/m 2,0 km/h (1 Bft) 0 min
05.11.2017 23:54 22,2 C 6,0 C 7,1 C 90 % 19 % 1015 hPa 0,0 l/m 0,7 km/h (0 Bft) 0 min
05.11.2017 23:57 22,2 C 6,0 C 7,1 C 90 % 19 % 1015 hPa 0,0 l/m 0,3 km/h (0 Bft) 0 min
_ Min-Zeit 18:21 02:00 04:33 13:33 - 12:39 - 00:00 -
Minimum _ 20,5 C 2,8 C 5,3 C 80 % - 1008 hPa - 0,0 km/h (0 Bft) -
_ Max-Zeit 17:30 13:33 13:39 02:48 00:00 21:54 17:36 18:42 07:12
Maximum _ 22,8 C 9,6 C 10,5 C 91 % 19 % 1015 hPa 0,3 l/m 33,9 km/h
N (5 Bft)
3 min
Durchschnitt _ 22,3 C 6,3 C 7,5 C 88 % #54 min. 1011 hPa #4,4 l/m 5,9 km/h (2 Bft) #54 min.